FLOCK 4A-2 (44080 NORAD) Tracking and Keplerian Element Data

This shows tracking and keplerian element data for the satellite.

Feedback or suggestion? Click here.




ElementValue
Catalog44080
NameFLOCK 4A-2
Epoch Orbit430
Epoch Day119.68993301
Epoch Year2019
RAAN179.9878
Inclination97.461
Eccentricity0.0013734
Argument of Perigee170.7617
Mean Anonmoly189.3874
Mean Motion15.21195063
Decay Rate7.14E-06
L11 44080U 19018C 19119.68993301 .00000714 00000-0 35091-4 0 9999
L22 44080 97.4610 179.9878 0013734 170.7617 189.3874 15.21195063 4301

Live tracking and technical data element details for FLOCK 4A-2 (NORAD 44080). FLOCK 4A-2 can be tracked NOW for your location showing map with azimuth and elevation plus other details from your city location.

Track the satellite on the map from your city or location and see movement details for azimuth, elevation, latitude, longitude, range, height, and movement on the map or in text.







IsCatalogInMostPopularTable: catalog: 44080, numindb: 31
Update: records affected: 1



GetName: 44080 FLOCK 4A-2

Hit Count: updated at: Mon, 22 Jul 2019 17:04:52 GMT